"Pseudo-MPEC" for P11czHU
Created 2021 Feb 27 18:07:04 UT using Find_Orb
Click here for an explanation of pseudo-MPECs
Astrometry: P11czHU C2021 02 07-^b.k5D$4
Astrometrya@G]/8^
redacted;WEWc%C])/'cU.Qmm$
F51 P11czHU C2021 02 078(Hp=dW72nJRXIcu),3f;
clicknOJ#fpsj.VlXs16dC^
here?G7Q
F51 P11czHU C2021 02 07KLTa9@V.o'1PG[IlC%^!RokqlP6ngg
for?AmM
explanation(-m_
F51 Station data: (F51) Pan-STARRS 1, Haleakala (N20.707235 W156.255910) US/Hawaii. Observers N. Primak, A. Schultz, S. Watters, J. Thiel, T. Goggia. Measurer PS1 Science Consortium. 1.8-m Ritchey-Chrétien + CCD. Orbital elements: P11czHU Perihelion 2020 Nov 9.719781 +/- 243.235 TT = 17:16:29 (JD 2459163.219781) Epoch 2021 Feb 8.0 TT = JDT 2459253.5 Earth MOID: 0.2311 AutoNEOCP M 21.76517518 +/- 77.525585 (J2000 ecliptic) n 0.24108465 +/- 0.284544 Peri. 343.66741 +/- 82.936505 a 2.55675829 +/- 2.01173 Node 101.17097 +/- 65.932749 e 0.5283171 +/- 0.253361 Incl. 16.77905 +/- 24.158479 P 4.09 H 21.5 G 0.15 U 11.9 SR q 1.20597903 +/- 1.00668 Q 3.90753755 +/- 31.0672 From 3 observations 2021 Feb. 7 (30.0 min); mean residual 0".04
Residuals in arcseconds: 210207 F51 .05- .02+ 210207 F51 .07+ .03- 210207 F51 .02- .01+ Ephemerides (geocentric): Date (UTC) HH RA Dec delta r elong mag " sig PA ---- -- -- -- ------------- ----------- ------ ------ ----- --- ---- --- 2021 02 27 18 12 24 37.838 +34 54 15.11 .77289 1.6807 144.5 23.0 45d 159 2021 02 27 19 12 24 34.964 +34 54 43.15 .77311 1.6810 144.5 23.0 45d 159 2021 02 27 20 12 24 32.087 +34 55 11.12 .77333 1.6812 144.5 23.0 45d 159 2021 02 27 21 12 24 29.207 +34 55 39.02 .77354 1.6815 144.5 23.0 45d 159 2021 02 27 22 12 24 26.325 +34 56 06.87 .77376 1.6818 144.5 23.0 45d 159 2021 02 27 23 12 24 23.439 +34 56 34.65 .77398 1.6821 144.6 23.0 45d 159 2021 02 28 00 12 24 20.552 +34 57 02.36 .77420 1.6823 144.6 23.0 45d 159 2021 02 28 01 12 24 17.661 +34 57 30.02 .77442 1.6826 144.6 23.0 45d 159 2021 02 28 02 12 24 14.768 +34 57 57.61 .77464 1.6829 144.6 23.0 45d 159 2021 02 28 03 12 24 11.872 +34 58 25.13 .77486 1.6832 144.6 23.0 45d 159 2021 02 28 04 12 24 08.973 +34 58 52.59 .77508 1.6834 144.6 23.0 45d 159 2021 02 28 05 12 24 06.072 +34 59 19.99 .77530 1.6837 144.6 23.0 45d 159 2021 02 28 06 12 24 03.168 +34 59 47.32 .77552 1.6840 144.6 23.0 45d 159 2021 02 28 07 12 24 00.262 +35 00 14.59 .77575 1.6842 144.7 23.0 45d 159 2021 02 28 08 12 23 57.352 +35 00 41.79 .77597 1.6845 144.7 23.0 45d 159 2021 02 28 09 12 23 54.441 +35 01 08.93 .77619 1.6848 144.7 23.0 45d 159 2021 02 28 10 12 23 51.526 +35 01 36.01 .77641 1.6851 144.7 23.1 45d 159 2021 02 28 11 12 23 48.609 +35 02 03.02 .77663 1.6853 144.7 23.1 45d 159 2021 02 28 12 12 23 45.690 +35 02 29.97 .77686 1.6856 144.7 23.1 45d 159 2021 02 28 13 12 23 42.768 +35 02 56.85 .77708 1.6859 144.7 23.1 45d 159 2021 02 28 14 12 23 39.843 +35 03 23.67 .77730 1.6862 144.7 23.1 45d 159 2021 02 28 15 12 23 36.916 +35 03 50.43 .77753 1.6864 144.8 23.1 45d 159 2021 02 28 16 12 23 33.987 +35 04 17.12 .77775 1.6867 144.8 23.1 45d 159 2021 02 28 17 12 23 31.054 +35 04 43.74 .77798 1.6870 144.8 23.1 45d 159 2021 02 28 18 12 23 28.120 +35 05 10.30 .77820 1.6873 144.8 23.1 45d 159 2021 02 28 19 12 23 25.182 +35 05 36.80 .77842 1.6875 144.8 23.1 45d 159 2021 02 28 20 12 23 22.243 +35 06 03.23 .77865 1.6878 144.8 23.1 45d 159 2021 02 28 21 12 23 19.301 +35 06 29.60 .77888 1.6881 144.8 23.1 45d 159 2021 02 28 22 12 23 16.356 +35 06 55.90 .77910 1.6884 144.8 23.1 45d 159 2021 02 28 23 12 23 13.409 +35 07 22.14 .77933 1.6886 144.8 23.1 45d 159 2021 03 01 00 12 23 10.459 +35 07 48.31 .77955 1.6889 144.9 23.1 45d 159 2021 03 01 01 12 23 07.507 +35 08 14.42 .77978 1.6892 144.9 23.1 45d 159 2021 03 01 02 12 23 04.553 +35 08 40.47 .78001 1.6895 144.9 23.1 45d 159 2021 03 01 03 12 23 01.596 +35 09 06.45 .78023 1.6897 144.9 23.1 45d 159 2021 03 01 04 12 22 58.637 +35 09 32.36 .78046 1.6900 144.9 23.1 45d 159 2021 03 01 05 12 22 55.675 +35 09 58.21 .78069 1.6903 144.9 23.1 46d 159 2021 03 01 06 12 22 52.711 +35 10 24.00 .78092 1.6906 144.9 23.1 46d 159 2021 03 01 07 12 22 49.745 +35 10 49.72 .78115 1.6908 144.9 23.1 46d 159 2021 03 01 08 12 22 46.776 +35 11 15.37 .78137 1.6911 144.9 23.1 46d 159 2021 03 01 09 12 22 43.805 +35 11 40.96 .78160 1.6914 145.0 23.1 46d 159 2021 03 01 10 12 22 40.832 +35 12 06.49 .78183 1.6917 145.0 23.1 46d 159 2021 03 01 11 12 22 37.856 +35 12 31.95 .78206 1.6919 145.0 23.1 46d 159 2021 03 01 12 12 22 34.878 +35 12 57.34 .78229 1.6922 145.0 23.1 46d 159 2021 03 01 13 12 22 31.898 +35 13 22.67 .78252 1.6925 145.0 23.1 46d 159 2021 03 01 14 12 22 28.915 +35 13 47.94 .78275 1.6928 145.0 23.1 46d 159 2021 03 01 15 12 22 25.930 +35 14 13.14 .78298 1.6930 145.0 23.1 46d 159 2021 03 01 16 12 22 22.943 +35 14 38.27 .78321 1.6933 145.0 23.1 46d 159 2021 03 01 17 12 22 19.954 +35 15 03.34 .78345 1.6936 145.0 23.1 46d 159